#timestamp,LO_Frequency,Hit,StdDev 
1514883615.4,286046999.2,N
1514883635.2,286046999.7,N
1514883655.0,286047002.1,N
1514883655.9,286047002.1,N
1514883675.8,286047000.8,N
1514883695.6,286046999.9,N
1514883715.5,286047002.4,N
1514883735.3,286047000.4,N
1514883755.1,286047000.9,N
1514883775.9,286047000.6,N
1514883795.7,286047002.4,N
1514883815.5,286047000.5,N
1514883835.4,286046999.4,N
1514883855.2,286046999.7,N
1514883875.1,286047005.9,Y
1514883876.0,286047005.9,P
1514883895.8,286047005.0,N
1514883915.6,286047007.1,N
1514883935.5,286047006.1,N
1514883955.3,286047007.2,N
1514883975.1,286047005.7,N
1514883995.9,286047005.4,N
1514884015.7,286047006.0,N
1514884035.6,286047003.1,N
1514884055.4,286047003.0,N
1514884075.2,286047001.9,N
1514884095.1,286047005.5,N
1514884096.0,286047005.5,N
1514884115.8,286047003.2,N
1514884135.7,286047007.1,Y
1514884155.5,286047003.8,P
1514884175.3,286047001.8,P
1514884195.2,286047000.7,N
1514884215.0,286046998.4,N
1514884215.9,286046998.4,N
1514884235.7,286047001.1,N
1514884255.6,286047002.3,N
1514884275.4,286046999.2,N
1514884295.3,286046996.6,N
1514884315.1,286046997.7,N
1514884316.0,286046997.7,N
1514884335.8,286046995.5,N
1514884355.7,286046995.5,N
1514884375.5,286046998.4,N
1514884395.3,286046998.8,N
1514884415.2,286047000.2,N
1514884435.0,286047000.4,N
1514884435.9,286047000.4,N
1514884455.8,286046999.4,N
1514884475.6,286046997.0,N
1514884495.5,286046997.1,N
1514884515.3,286046999.4,N
1514884535.2,286046998.5,N
1514884555.0,286046999.9,N
1514884555.9,286046999.9,N
1514884575.7,286047001.9,N
1514884595.6,286047001.8,N
1514884615.4,286047005.7,N
1514884635.3,286047005.7,N
1514884655.1,286047003.3,N
1514884675.8,286047003.4,N
1514884695.7,286047004.4,N
1514884715.5,286047001.9,N
1514884735.4,286047002.2,N
1514884755.2,286047002.2,N
1514884775.0,286047001.4,N
1514884775.9,286047001.4,N
1514884795.8,286047002.3,N
1514884815.6,286047001.4,N
1514884835.5,286047004.4,N
1514884855.3,286047000.0,N
1514884875.1,286047000.2,N
1514884895.9,286047003.2,N
1514884915.7,286047001.7,N
1514884935.6,286047001.4,N
1514884955.4,286047003.5,N
1514884975.2,286047007.3,Y
1514884995.1,286047003.8,P
1514884996.0,286047003.8,P
1514885015.8,286047000.6,N
1514885035.7,286047000.6,N
1514885055.5,286047002.1,N
1514885075.4,286046999.8,N
1514885095.2,286047001.7,N
1514885115.0,286047004.2,Y
1514885115.9,286047004.2,P
1514885135.8,286047002.5,N
1514885155.6,286046998.7,N
1514885175.5,286046997.4,N
1514885195.3,286046997.4,N
1514885215.1,286046997.7,N
1514885235.9,286046997.9,N
1514885255.7,286046998.0,N
1514885275.6,286046996.8,N
1514885295.4,286047001.1,N
1514885315.2,286046996.9,N
1514885335.1,286046997.7,N
1514885336.0,286046997.7,N
1514885355.8,286046994.9,N
1514885375.6,286046996.8,N
1514885395.5,286046997.6,N
1514885415.3,286046998.5,N
1514885435.2,286046999.2,N
1514885455.9,286047001.6,N
1514885475.7,286047001.6,N
1514885495.6,286047001.0,N
1514885515.4,286047000.3,N
1514885535.3,286047002.1,N
1514885555.1,286047001.7,N
1514885556.0,286047001.7,N
1514885575.8,286047001.7,N
1514885595.7,286047001.6,N
1514885615.5,286047002.8,N
1514885635.3,286046999.8,N
1514885655.2,286047005.9,N
1514885675.0,286047003.8,N
1514885675.9,286047003.8,N
1514885695.8,286047004.1,N
1514885715.6,286047003.0,N
1514885735.4,286047003.0,N
1514885755.3,286047003.2,N
1514885775.1,286047002.4,N
1514885795.8,286047000.9,N
1514885815.7,286047002.4,N
1514885835.5,286047001.2,N
1514885855.4,286046997.8,N
1514885875.2,286046998.5,N
1514885895.0,286046996.8,N
1514885895.9,286046996.8,N
1514885915.8,286046997.7,N
1514885935.6,286046998.0,N
1514885955.4,286046995.4,N
1514885975.3,286046999.6,N
1514885995.1,286047000.8,N
1514886015.9,286047000.6,N
1514886035.7,286047010.6,Y
1514886055.5,286047010.3,P
1514886075.4,286047007.2,N
1514886095.2,286047006.0,N
1514886115.1,286047004.4,N
1514886116.0,286047004.4,N
1514886135.8,286047000.0,N
1514886155.6,286047001.2,N
1514886175.5,286047000.7,N
1514886195.3,286046999.5,N
1514886215.1,286046997.6,N
1514886235.9,286046997.6,N
1514886255.7,286046995.5,N
1514886275.6,286046995.0,N
1514886295.4,286046995.7,N
1514886315.2,286046995.2,N
1514886335.1,286046994.2,N
1514886336.0,286046994.2,N
1514886355.8,286046995.6,N
1514886375.8,286046995.4,N
1514886395.6,286046995.4,N
1514886415.5,286046997.1,N
1514886435.3,286046999.2,N
1514886455.1,286046999.6,N
1514886475.9,286046998.0,N
1514886495.7,286046995.7,N
1514886515.6,286046995.4,N
1514886535.4,286046997.5,N
1514886555.2,286046996.0,N
1514886575.1,286046993.9,N
1514886576.0,286046993.9,N
1514886595.8,286046995.6,N
1514886615.7,286047000.7,N
1514886635.5,286046998.7,N
1514886655.3,286046998.7,N
1514886675.2,286046997.6,N
1514886695.9,286046996.9,N
1514886715.7,286046998.2,N
1514886735.6,286047000.4,N
1514886755.4,286047000.1,N
1514886775.3,286047001.8,N
1514886795.1,286046996.6,N
1514886796.0,286046996.6,N
1514886815.8,286046998.9,N
1514886835.7,286046997.7,N
1514886855.5,286046995.5,N
1514886875.3,286046995.0,N
1514886895.2,286046995.1,N
1514886915.0,286046997.8,N
1514886915.9,286046997.8,N
1514886935.8,286046997.4,N
1514886955.6,286047001.2,N
1514886975.4,286046999.5,N
1514886995.3,286046999.4,N
1514887015.1,286046998.2,N
1514887035.8,286046998.1,N
1514887055.7,286046999.9,N
1514887075.5,286046999.7,N
1514887095.4,286047003.5,N
1514887115.2,286047000.9,N
1514887135.0,286046998.7,N
1514887135.9,286046998.7,N
1514887155.8,286047001.2,N
1514887175.6,286047002.3,N
1514887195.4,286047002.0,N
